Location: ??????
(55.6500°N, 37.8000°E)
Time: 12:49:44
(UTC+00:00)

CZ-2D R/B - Pass Details

Date: 14 April 2024
Orbit: 791 x 842 km, 98.8° (Epoch: 18 May)

Event Time Altitude Azimuth Distance (km) Brightness Sun altitude
Rises 00:53:04 0° 13° (NNE) 3,337 6.2 -12.3°
Reaches altitude 10° 00:55:32 10° 5° (N) 2,410 5.2 -12.1°
Maximum altitude 01:00:21 36° 301° (WNW) 1,271 3.0 -11.5°
Enters shadow 01:04:20 15° 241° (WSW) 2,119 3.6 -11.1°
